Location: Unspecified
(0.0000°N, 0.0000°E)
Time: 20:29:35
(UTC+00:00)

NOSS 2-2 (E) - Pass Details

Date: 21 January 2022
Orbit: 439 x 1762 km, 63.3° (Epoch: 11 May)

Event Time Altitude Azimuth Distance (km) Brightness Sun altitude
Rises 19:44:42 0° 193° (SSW) 3,486 7.9 -21.9°
Reaches altitude 10° 19:47:42 10° 185° (S) 2,322 6.8 -22.6°
Enters shadow 19:51:33 35° 145° (SE) 1,052 4.6 -23.5°
